This demonstration page uses our WeatherBlox Daily Observations layout. Learn more.

Left ArrowRight Arrow

38.89511, -77.03637

Hourly Observations for July 30, 2015

Temp ( °F °C ) Dew Point ( °F °C ) Humidity (%) Winds ( mph kmh ) Pressure ( in mb ) Visibility ( mi km ) Precip ( " mm )
12:52 am 00:52 Mostly Cloudy 83 28.3 74 23.3 74 74 S 10 17 29.96 1014 10 16 0.00 0.00
1:52 am 01:52 Mostly Cloudy 82 27.8 74 23.3 77 77 S 7 11 29.95 1014 10 16 0.00 0.00
2:52 am 02:52 Partly Cloudy 82 27.8 75 23.9 79 79 S 9 15 29.93 1014 10 16 0.00 0.00
3:52 am 03:52 Partly Cloudy 81 27.2 75 23.9 82 82 S 8 13 29.92 1013 10 16 0.00 0.00
4:13 am 04:13 Mostly Cloudy 81 27 75 24 84 84 S 12 19 29.91 1013 10 16 0.00 0.00
4:52 am 04:52 Mostly Cloudy 80 26.7 74 23.3 82 82 S 13 20 29.91 1013 10 16 0.00 0.00
5:39 am 05:39 Mostly Cloudy 81 27 73 23 79 79 S 14 22 29.91 1013 10 16 0.00 0.00
5:52 am 05:52 Mostly Cloudy 80 26.7 73 22.8 79 79 S 14 22 29.92 1013 10 16 0.00 0.00
6:52 am 06:52 Mostly Cloudy 80 26.7 73 22.8 79 79 SSW 10 17 29.93 1014 10 16 0.00 0.00
7:52 am 07:52 Mostly Cloudy 81 27.2 73 22.8 77 77 S 8 13 29.92 1013 10 16 0.00 0.00
8:52 am 08:52 Mostly Cloudy 82 27.8 74 23.3 77 77 S 9 15 29.93 1013 10 16 0.00 0.00
9:52 am 09:52 Mostly Cloudy 84 28.9 75 23.9 74 74 S 10 17 29.91 1013 10 16 0.00 0.00
10:52 am 10:52 Mostly Cloudy 88 31.1 76 24.4 68 68 S 10 17 29.92 1013 10 16 0.00 0.00
11:52 am 11:52 Mostly Cloudy 89 31.7 76 24.4 65 65 SSW 7 11 29.91 1013 10 16 0.00 0.00
12:52 pm 12:52 Mostly Cloudy 90 32.2 77 25 66 66 S 14 22 29.89 1012 10 16 0.00 0.00
1:14 pm 13:14 Mostly Cloudy 91 33 77 25 63 63 S 14 22 29.88 1012 10 16 0.00 0.00
1:52 pm 13:52 Mostly Cloudy with Thunderstorms 89 31.7 76 24.4 65 65 S 10 17 29.88 1012 10 16 0.00 0.00
1:59 pm 13:59 Mostly Cloudy with Thunderstorms 90 32 75 24 63 63 W 18 30 29.91 1013 10 16 0.00 0.00
2:09 pm 14:09 Mostly Cloudy with Strong Thunderstorms 82 28 73 23 74 74 NW 22 35 29.91 1013 3 4 0.00 0.03
2:13 pm 14:13 Cloudy with Strong Thunderstorms 81 27 73 23 79 79 NW 26 43 29.91 1013 2 2 0.00 0.03
2:24 pm 14:24 Cloudy with Strong Thunderstorms 79 26 73 23 84 84 NW 17 28 29.91 1013 1 2 0.00 0.00
2:34 pm 14:34 Cloudy with Strong Thunderstorms 79 26 73 23 84 84 NW 8 13 29.91 1013 3 5 0.00 0.00
2:43 pm 14:43 Cloudy with Thunderstorms 79 26 73 23 84 84 SSW 6 9 29.91 1013 6 10 0.51 12.95
2:52 pm 14:52 Cloudy with Thunderstorms 79 26.1 74 23.3 85 85 S 7 11 29.89 1012 7 11 0.52 13.21
3:52 pm 15:52 Mostly Cloudy 81 27.2 75 23.9 82 82 S 7 11 29.87 1012 10 16 0.01 0.25
4:52 pm 16:52 Mostly Cloudy 83 28.3 76 24.4 79 79 SSW 7 11 29.86 1011 10 16 0.00 0.00
5:52 pm 17:52 Mostly Cloudy 84 28.9 76 24.4 77 77 SSE 9 15 29.86 1011 10 16 0.00 0.00
6:52 pm 18:52 Mostly Cloudy 84 28.9 74 23.3 72 72 S 9 15 29.86 1011 10 16 0.00 0.00
7:52 pm 19:52 Mostly Cloudy 83 28.3 74 23.3 74 74 S 7 11 29.87 1012 10 16 0.00 0.00
8:52 pm 20:52 Mostly Cloudy 83 28.3 74 23.3 74 74 SW 7 11 29.88 1012 10 16 0.00 0.00
9:52 pm 21:52 Mostly Cloudy 82 27.8 74 23.3 77 77 Calm 29.90 1013 10 16 0.00 0.00
10:52 pm 22:52 Mostly Cloudy 82 27.8 74 23.3 77 77 S 3 6 29.91 1013 10 16 0.00 0.00
11:52 pm 23:52 Clear 81 27.2 73 22.8 77 77 WNW 6 9 29.91 1013 10 16 0.00 0.00

Powered by AerisWeather